Probability
0 0 0 0 0 0 0 0 0 0 0 0 0 0 0 0 0 0 0 0 0 0 0 0 0 0 0 0 0 1 2 2 2 3 2 2 2 1 0 0 0 0 0 1 3 2 1 0 0
0 0 0 0 0 0 0 0 0 0 0 0 0 0 0 0 0 0 0 0 0 0 0 0 0 0 0 0 0 0 1 1 1 2 1 1 1 0 0 0 0 0 0 1 2 2 1 0 0
0 0 0 0 0 0 0 0 0 0 0 0 0 0 0 0 0 0 0 0 0 0 0 0 0 0 0 0 0 0 0 0 0 0 0 0 0 0 0 0 0 0 0 1 1 1 0 0 0
0 0 0 0 0 0 0 0 0 0 0 0 0 0 0 0 0 0 0 0 0 1 1 2 2 1 0 0 0 0 0 0 0 0 0 0 0 0 0 0 0 0 0 0 0 0 0 0 0
0 0 0 0 0 0 0 0 0 0 0 0 0 0 0 0 0 0 0 0 0 1 2 3 3 2 1 0 0 0 0 0 0 0 0 0 0 0 0 0 0 0 0 0 0 0 0 0 0
0 0 0 0 0 0 0 0 0 0 0 0 0 0 0 0 0 0 0 0 0 1 2 3 3 3 2 1 1 0 0 0 0 0 0 0 0 0 0 0 0 0 0 0 0 0 0 0 0
0 0 0 0 0 0 0 0 0 0 0 0 0 0 0 0 0 0 0 0 0 1 2 3 4 4 4 3 3 2 1 1 1 1 0 0 0 0 1 1 0 0 0 0 0 0 0 0 0
0 0 0 0 0 0 0 0 0 0 0 0 0 0 0 0 0 0 0 0 0 0 1 3 4 5 5 6 5 4 3 2 2 2 1 1 1 1 1 1 0 0 0 0 0 0 0 0 0
0 0 0 0 0 0 0 0 0 0 0 0 0 0 0 0 1 1 1 1 0 0 0 1 3 4 5 6 6 6 4 3 3 3 3 3 3 2 1 1 0 0 1 0 0 0 0 0 0
0 0 0 0 0 0 0 0 0 0 0 0 0 0 0 0 1 2 3 2 1 1 1 1 2 3 4 6 6 6 4 3 3 3 2 3 3 2 1 0 0 0 0 0 0 0 0 0 0
0 0 0 0 0 0 0 0 0 0 0 0 0 0 0 0 1 2 3 3 3 2 2 3 3 3 4 5 6 5 3 3 3 2 2 3 3 2 1 0 0 0 0 0 0 0 0 0 0
0 0 0 0 0 0 0 0 0 0 0 0 0 0 0 0 0 1 2 3 3 3 3 3 3 3 3 4 5 4 2 2 2 2 2 3 2 1 0 0 0 0 0 0 0 0 0 0 0
0 0 0 0 0 0 0 0 0 0 0 0 0 0 0 0 0 0 1 2 3 3 3 3 3 3 3 3 4 3 1 1 1 1 2 3 1 0 0 0 0 0 0 0 0 0 0 0 0
0 0 0 0 0 0 0 0 0 0 0 0 1 1 0 0 0 0 0 1 2 3 3 3 3 3 3 3 3 2 1 0 0 1 2 2 1 0 0 0 0 0 0 0 0 0 0 0 0
0 0 0 0 0 0 0 0 0 0 0 0 1 1 0 0 0 0 0 0 1 2 3 3 3 3 3 3 3 3 1 0 0 0 1 1 0 0 0 0 0 0 0 0 0 0 0 0 0
0 0 0 0 0 0 0 0 0 0 0 0 1 1 0 0 0 0 0 0 0 1 2 3 3 3 3 3 3 3 2 1 0 0 0 0 0 0 0 0 0 0 0 0 0 0 0 0 0
0 0 0 0 0 0 0 0 0 0 0 0 0 0 0 0 0 0 0 0 0 0 1 2 3 3 3 3 3 3 2 1 0 0 0 0 0 0 0 0 0 0 0 0 0 0 0 0 0
0 0 0 0 0 0 0 0 0 0 0 0 0 0 0 0 0 0 0 0 0 0 0 1 2 3 3 3 3 3 3 1 0 0 0 0 0 0 0 0 0 0 0 0 0 0 0 0 0
0 0 0 0 0 0 0 0 0 0 0 0 0 0 0 0 0 0 0 0 0 0 0 0 1 1 2 3 3 3 3 2 1 0 0 0 0 0 0 0 0 0 0 0 0 0 0 0 0
0 0 0 0 0 0 0 0 0 0 0 0 0 0 0 0 1 0 0 0 0 0 0 0 0 1 2 2 3 3 3 3 2 1 0 0 0 0 0 0 0 0 0 0 0 0 0 0 0
0 0 0 0 0 0 0 0 0 0 0 0 0 0 0 0 0 0 0 0 0 0 0 0 1 2 2 2 2 3 3 3 3 1 0 0 0 0 0 0 0 0 0 0 0 0 0 0 0
0 0 0 0 0 0 0 0 0 0 0 0 0 0 0 0 0 0 0 0 0 0 0 0 1 2 3 2 2 2 3 3 3 2 1 0 0 0 0 0 0 0 0 0 0 0 0 0 0
0 0 0 0 0 0 0 0 0 0 0 0 0 0 0 0 0 0 0 0 0 0 0 0 1 2 3 3 1 1 2 3 3 3 2 1 0 0 0 0 0 0 0 0 0 0 0 0 0
0 0 0 0 0 0 0 0 0 0 0 0 0 0 0 0 0 0 0 0 0 0 0 0 1 2 3 3 2 1 1 2 3 3 3 1 0 0 0 0 0 0 0 0 0 0 0 0 0
0 0 0 0 0 0 0 0 0 0 0 0 0 0 0 0 0 0 0 0 0 0 0 0 1 2 3 3 3 2 1 1 2 3 3 2 1 0 0 0 0 0 0 0 0 0 0 0 0
0 0 0 0 0 0 0 0 0 0 0 0 0 0 0 0 0 0 0 0 0 0 0 0 0 1 2 3 3 3 1 0 1 2 3 3 2 1 0 0 0 0 0 0 0 0 0 0 0
0 0 0 0 0 0 0 0 0 0 0 0 0 0 0 0 0 0 0 0 0 1 1 1 0 0 1 2 3 3 2 1 0 1 3 3 3 2 1 0 0 0 0 0 0 0 0 0 0
0 0 0 0 0 0 0 0 0 0 0 0 0 0 0 0 0 0 0 0 1 2 2 1 0 0 0 1 3 3 3 2 1 1 2 3 3 2 1 0 0 0 0 0 0 0 0 0 0
0 0 0 0 0 0 0 0 0 0 0 0 0 0 0 0 0 0 0 0 1 2 1 0 0 0 0 1 2 3 3 2 1 1 2 3 3 2 1 0 0 0 0 0 0 0 0 0 0
0 0 0 0 0 0 0 0 0 0 0 0 0 0 0 0 0 0 0 0 1 1 0 0 0 0 0 0 1 3 3 2 1 1 2 3 3 2 1 0 0 0 0 0 0 0 0 0 0
Wind_Speed
3 3 3 4 7 7 3 2 0 1 2 2 3 5 6 4 2 2 2 1 1 1 1 1 4 6 7 8 8 9 10 10 9 9 10 10 10 10 10 10 10 10 11 11 11 11 11 11 11
1 2 5 6 7 4 2 2 1 1 3 2 3 4 5 4 2 2 0 1 2 1 1 1 4 6 7 8 8 9 10 10 10 10 10 10 9 10 10 9 10 10 11 11 11 11 11 11 11
2 4 5 6 5 4 2 0 1 2 2 2 3 4 3 2 1 1 1 3 3 2 1 2 5 5 7 7 8 9 10 10 10 10 10 10 9 9 9 9 10 10 10 11 10 10 11 11 11
3 5 6 7 4 1 2 2 2 3 3 4 3 4 3 2 1 2 3 4 3 2 2 2 5 5 6 7 8 8 9 9 9 10 10 10 9 9 9 9 10 9 10 10 10 10 11 11 11
5 6 7 4 2 2 1 1 2 3 2 3 3 4 2 4 3 4 4 3 3 2 2 2 5 5 6 7 8 8 9 9 9 9 9 10 9 9 9 9 9 9 9 10 10 11 11 11 11
6 6 6 3 2 2 1 1 3 4 3 2 4 3 1 1 3 3 4 3 3 3 2 3 4 5 6 7 7 8 8 8 9 9 9 9 9 10 10 9 9 9 9 10 10 10 10 11 11
6 5 4 3 2 2 1 1 3 3 3 2 3 4 0 0 1 3 4 3 3 3 3 3 2 3 5 6 6 7 8 8 8 9 9 9 10 10 10 10 10 9 9 10 10 10 10 10 11
5 6 4 2 2 0 1 2 2 3 2 2 3 5 3 2 3 4 4 4 3 3 2 2 2 3 3 3 5 6 7 7 8 9 9 9 9 9 9 9 10 10 10 10 10 10 11 11 11
5 6 3 2 4 1 1 2 2 2 4 2 1 2 2 5 6 5 4 3 2 2 1 2 2 2 2 2 4 5 6 6 7 6 8 8 5 5 5 8 9 10 10 10 10 11 11 11 11
5 4 3 3 4 3 1 2 2 3 3 2 2 3 5 6 6 5 4 3 2 1 0 0 1 1 2 2 2 2 3 3 4 3 4 4 4 4 5 8 10 10 10 11 11 12 11 8 5
4 4 2 1 2 3 2 2 2 5 1 3 4 5 5 5 5 4 4 3 3 2 1 1 1 1 1 1 2 1 2 2 3 3 3 3 3 3 4 3 5 5 7 5 7 7 5 4 4
4 1 2 2 2 2 2 2 2 2 4 4 5 7 6 6 5 5 4 3 2 2 1 1 1 1 1 1 1 1 1 1 1 2 2 2 2 3 3 3 3 3 3 3 3 3 4 5 5
3 1 1 2 2 2 3 2 2 1 2 2 5 6 6 6 5 3 2 2 2 2 1 1 2 1 1 1 1 2 2 1 1 1 2 2 2 2 2 2 2 3 3 3 3 3 4 4 4
2 2 2 2 2 1 3 1 2 1 2 4 5 5 5 5 5 3 2 3 3 3 2 2 2 2 2 1 1 1 1 2 2 1 2 2 2 2 2 2 2 2 2 2 2 3 3 3 3
3 4 4 2 1 1 3 3 1 2 3 3 3 3 4 4 3 4 4 4 4 3 2 2 3 2 2 2 2 2 2 2 2 1 2 2 2 2 2 2 2 2 2 3 3 3 3 3 4
4 4 2 3 1 1 4 2 4 2 4 3 3 3 3 3 3 3 3 3 3 3 2 2 3 3 2 2 2 1 2 2 1 1 1 2 2 2 2 2 1 1 2 2 2 3 3 3 3
4 2 1 4 1 1 3 4 5 2 4 4 4 4 4 3 3 2 3 3 3 3 3 3 2 3 3 2 2 2 2 2 1 1 1 1 2 2 2 2 1 2 2 2 2 2 2 2 2
2 1 1 2 2 2 2 5 5 2 4 5 5 4 4 4 5 3 3 3 3 3 3 2 2 3 3 2 2 2 2 1 1 1 1 2 1 2 2 2 2 2 2 2 2 2 2 2 1
3 2 2 4 2 1 3 5 6 3 3 4 4 4 5 6 4 2 2 2 2 2 3 3 2 2 3 2 2 1 1 0 0 1 1 2 2 2 2 2 2 2 2 2 2 2 2 2 2
2 1 2 3 2 1 2 5 4 3 5 6 7 7 7 5 2 2 3 3 3 3 3 3 3 2 2 2 2 2 2 1 0 1 1 1 1 2 2 2 2 2 2 2 2 2 2 1 2
1 3 3 3 2 2 2 5 4 3 2 2 2 4 4 6 5 4 4 4 4 4 4 4 3 3 2 2 2 3 2 2 2 1 1 0 1 1 2 2 2 2 2 2 1 2 2 1 1
3 4 3 2 1 3 1 3 6 3 3 2 3 3 4 5 4 4 4 4 5 5 4 4 3 3 2 3 3 4 3 2 2 1 1 0 1 1 1 2 2 2 1 2 1 2 1 2 1
4 1 1 0 1 1 2 1 7 3 3 5 5 5 5 5 5 5 6 5 4 3 3 3 3 2 2 2 3 3 2 2 1 1 1 1 1 1 1 2 2 2 1 2 1 1 1 2 2
2 4 4 4 4 1 2 2 6 4 5 5 4 4 4 5 4 4 3 3 2 2 2 3 3 2 2 3 3 3 3 2 2 1 1 0 0 0 0 1 1 1 1 2 2 2 2 2 2
4 4 4 4 3 4 2 2 8 6 4 5 5 4 4 4 4 3 3 3 3 3 3 3 4 3 2 3 3 3 3 3 4 3 2 1 1 1 1 1 2 1 1 2 2 2 2 2 2
1 5 5 3 4 4 2 4 7 4 3 2 2 1 1 1 2 3 4 4 3 3 3 3 3 3 3 3 3 2 3 2 2 3 2 2 2 2 1 1 1 1 1 1 1 1 2 2 2
3 2 4 5 1 1 4 5 6 3 4 3 3 3 2 0 1 2 2 3 3 3 4 4 4 3 3 3 3 2 2 2 2 2 2 2 2 2 2 2 1 1 1 1 2 1 2 2 2
2 5 4 4 3 2 4 4 4 4 4 3 3 2 2 2 1 0 1 2 3 3 3 2 3 3 3 3 3 2 2 2 2 2 2 2 2 2 2 2 2 1 1 2 2 1 1 2 2
2 3 3 3 3 4 3 6 4 4 3 2 3 2 2 1 1 0 0 1 2 2 2 2 2 2 2 2 3 2 2 2 2 2 3 3 2 2 2 2 2 2 2 2 2 2 2 2 2
3 4 5 3 3 3 3 7 3 2 2 1 2 2 2 1 1 0 0 1 2 2 2 2 2 2 2 2 2 3 2 2 2 2 3 3 3 3 3 2 2 2 2 2 3 3 3 3 4
Wind_Direction
21 59 65 54 54 53 49 354 54 65 56 31 57 80 90 84 90 121 266 122 123 97 14 69 83 82 76 72 70 70 72 83 84 87 87 85 82 83 82 79 78 77 76 74 74 74 74 73 73
62 73 53 56 76 73 9 337 60 77 140 135 68 73 74 64 73 111 56 151 123 114 54 87 94 88 79 75 74 75 76 80 81 83 84 85 82 82 79 77 78 77 76 74 73 74 72 72 72
84 58 72 66 84 129 148 227 120 70 83 80 67 61 80 85 94 155 195 140 106 80 47 69 92 89 86 79 79 79 77 80 81 80 82 81 80 78 77 76 77 77 77 74 71 72 71 69 69
75 47 54 68 77 155 164 168 129 107 55 43 78 63 54 29 139 158 128 119 103 71 47 70 88 87 86 84 83 84 83 84 82 80 79 77 77 77 76 76 76 76 75 73 70 69 68 66 67
59 69 62 56 39 10 69 149 128 104 80 50 77 83 33 353 72 107 113 110 107 82 51 67 85 85 87 88 87 89 88 86 83 80 78 78 77 74 73 74 75 75 74 72 69 68 67 66 67
57 65 80 82 38 19 40 119 99 85 92 84 93 96 36 12 90 114 113 105 99 90 60 52 72 76 80 86 89 89 87 85 81 77 75 77 76 74 71 71 74 76 75 72 68 67 67 67 70
92 86 106 118 80 36 60 70 106 110 100 124 126 104 22 40 133 116 101 96 88 78 63 44 41 49 65 80 84 85 85 84 81 76 72 72 70 69 67 66 69 70 69 68 64 63 64 66 67
108 95 83 90 110 88 6 80 97 112 115 104 107 130 191 204 130 98 85 78 78 68 61 55 41 37 38 52 74 80 81 79 76 74 71 66 62 60 60 59 62 64 64 64 62 61 61 61 63
78 77 111 172 158 173 57 85 62 73 96 68 77 156 181 130 117 101 83 65 66 72 47 59 54 36 35 49 63 64 69 69 67 65 68 61 45 41 44 49 59 62 64 63 61 61 60 60 58
77 106 189 193 171 159 104 102 122 84 69 51 45 58 100 116 125 128 132 140 149 178 246 74 77 53 37 54 58 48 55 52 56 58 58 55 48 40 45 42 53 56 59 58 59 59 56 53 44
96 143 178 148 163 141 122 103 92 120 150 202 180 156 136 131 138 147 160 168 180 187 164 142 140 84 64 54 71 59 57 58 55 58 60 60 53 41 38 37 37 42 50 46 47 48 43 44 46
95 105 138 144 122 117 132 117 102 146 219 218 180 157 150 154 164 172 179 179 168 158 179 150 143 121 96 78 81 93 85 81 75 64 67 70 61 47 39 43 37 39 42 44 41 46 45 46 45
84 87 79 108 94 109 100 99 134 272 294 107 125 139 160 172 180 187 179 164 154 172 185 166 149 140 106 87 80 103 109 108 102 85 78 84 82 64 51 46 45 42 48 52 50 51 51 50 45
126 95 72 65 74 74 102 62 82 280 88 109 132 164 179 183 183 173 178 184 181 192 191 160 148 141 110 96 89 96 108 108 97 86 87 90 91 85 70 55 47 42 44 53 63 63 60 53 53
80 70 32 15 41 65 96 29 266 224 120 127 158 182 186 197 185 188 196 192 190 193 180 159 154 126 122 115 103 102 111 109 107 100 91 98 102 99 88 74 56 41 47 58 62 59 57 56 52
51 54 22 319 7 75 111 260 276 177 146 170 190 195 195 211 212 211 202 198 188 173 163 167 157 131 129 112 108 100 101 105 103 104 102 105 104 105 97 88 71 61 62 65 67 60 59 51 45
35 59 308 307 296 121 134 239 268 182 166 193 202 203 206 215 233 228 203 195 180 172 162 156 145 140 141 128 112 105 100 98 100 101 107 110 106 110 109 99 80 72 71 65 77 63 70 68 48
217 217 249 263 278 124 187 250 269 231 201 211 213 215 217 215 225 218 210 200 167 151 142 138 142 139 134 121 101 81 75 74 78 96 103 116 113 112 111 102 83 83 84 68 71 77 59 71 63
160 178 238 258 263 169 232 261 271 250 220 224 219 217 223 230 231 195 189 175 140 133 132 137 140 148 137 133 140 129 134 127 65 83 102 115 117 117 115 111 97 91 98 105 102 95 78 54 57
141 174 274 296 307 196 260 282 277 240 221 217 208 209 212 221 220 192 184 173 171 172 166 162 167 154 161 160 153 149 143 136 132 38 70 96 115 126 126 124 124 114 105 94 95 100 99 68 58
192 204 228 255 328 8 354 326 316 297 278 262 229 212 206 201 202 202 191 192 184 186 184 182 182 171 166 140 110 88 69 54 46 30 20 25 119 124 121 133 134 130 135 143 141 128 123 131 42
243 242 215 218 30 308 25 298 294 296 302 261 237 217 215 212 203 203 198 198 200 201 186 176 175 171 170 144 140 143 151 171 200 193 186 58 94 120 130 135 137 139 137 146 165 142 140 142 142
219 277 114 150 161 335 0 195 286 318 287 266 249 230 222 213 202 202 206 206 204 192 178 172 159 160 161 157 153 156 160 174 151 111 101 75 49 86 123 137 135 141 151 163 157 146 156 159 161
125 63 51 48 71 332 263 188 279 258 243 264 259 240 230 217 207 200 198 188 176 163 162 156 149 156 150 152 152 153 156 151 129 129 141 172 15 30 135 151 155 163 171 181 181 173 174 175 164
73 78 28 3 11 261 277 214 254 264 254 243 253 258 247 219 195 186 182 183 176 168 166 154 153 166 167 161 164 169 164 166 171 175 180 181 189 235 226 181 181 189 202 191 179 172 186 184 181
161 140 160 202 227 280 318 246 262 281 299 303 291 281 282 202 193 194 195 183 180 178 172 159 163 175 169 169 180 177 166 168 188 183 176 185 201 216 207 188 192 199 194 190 183 186 203 194 201
142 163 165 137 165 272 282 287 302 338 0 7 8 21 20 359 203 198 185 178 175 175 183 181 177 179 187 185 176 170 172 173 193 196 183 192 212 210 189 180 186 200 187 181 176 203 216 201 208
139 145 104 122 160 255 286 279 267 305 316 335 349 344 329 352 7 29 180 186 174 181 184 175 181 183 191 183 186 188 196 198 199 189 196 210 219 209 188 191 192 202 193 173 165 201 217 198 224
99 102 111 120 156 168 253 271 242 242 271 287 297 304 307 305 283 271 219 180 171 157 152 165 181 174 180 190 187 184 199 196 190 200 208 210 211 209 208 209 202 206 207 195 186 209 200 206 227
176 163 148 156 222 186 198 265 288 254 273 271 306 319 329 325 318 335 43 116 130 140 157 176 187 187 198 190 180 191 198 183 194 220 221 208 207 214 214 209 210 223 222 207 200 217 218 214 222